SL-8 R/B

Satellite information

Favourite Embed

Satellite Type and Status

ROCKET BODYIN ORBIT

Key statistics

Satellite SL-8 R/B at a glance.

Uptime

13307

Days in orbit

Revolutions

≈ 13.8

Per day

Orbit

LEO

Low Earth Orbit

Inclination

83.0

Latest

Satellite identification and parameters

Extended collection of information and parameters for SL-8 R/B.

Object identification

Identified? True

Debris? False

Object name: SL-8 R/B

International designator: 1989-028B

Object number (NORAD): 19922

Object ID (CCSDS): 19922

Country: COMMONWEALTH OF INDEPENDENT STATES (CIS)

Current information (Y/N): Y

RCS size: LARGE

Orbital parameters

Period: 104.539 minutes

Inclination: 82.9631 deg

SMA: 7351.012 km

Apoapsis: 1000.613 km

Periapsis: 945.14 km

RAAN: 357.1419 deg

Eccentricy: 0.00377321

Argument of periapsis: 106.5848 deg

Mean anomaly: 253.9459 deg

Mean motion: 13.77469869 rev/day

Mean motion (dot): 0.00000068 rev/day2

B* drag term: 0.000052514556 1/REarth

Two-line elements (TLE)

Creation date: Sept. 8, 2025, 6:18 p.m.

Reference frame: TEME

Reference center: EARTH

Epoch: Sept. 8, 2025, 8:22 a.m. UTC

TLE line 0: 0 SL-8 R/B

TLE line 1: 1 19922U 89028B 25251.34888640 .00000068 00000-0 52515-4 0 9992

TLE line 2: 2 19922 82.9631 357.1419 0037732 106.5848 253.9459 13.77469869830635

Live tracking on map

Real-time ground track for satellite SL-8 R/B.

In-orbit conjunctions

A list of the most updated potential collisions computed for object SL-8 R/B.

Target Orbit TCA Probability of collision Miss distance Type
FENGYUN 1C DEB SSO 2025-08-22 01:52:37 0.0001559113 264.0 (m) DEBRIS
COSMOS 952 DEB LEO 2024-06-11 19:04:29 0.0001760783 268.0 (m) DEBRIS

Associated space launch

Navigation satellite providing location information for the Tsiklon-B navigation system

SL-8 R/B was lifted into orbit during the mission ‘Kosmos-3M | Parus 65’, on board a Kosmos-3M space rocket.

The launch took place on April 4, 1989, 6:36 p.m. from 132/2.

For more information about the launch, click the button.

Launch to space Kosmos-3M | Parus 65
Kosmos-3M | Parus 65

Agency: N/A

Status: Launch Successful

Launch date: April 4, 1989, 6:36 p.m. UTC

Rocket: Kosmos-3M

Launch pad: 132/2

Location: Plesetsk Cosmodrome, Russian Federation

...

Latest news about this satellite

There are no fresh news available about this satellite. Check back as we update our databases every day.


Newsletter sign-up

Weekly statistics, charts and insights to help you stay on top of the space industry.